• Join FlightAware (Why Join?)
  • Login
  • US Flag 
06:05AM EDT


 

Airport Tracker/Info


-or-


 

Live Flight TrackerFlight Track Log ✈ N73DB ✈ 24-Jul-2013 ✈ KEDE - KCLT

Flight Track Log - Related Links

Times and Time Zones

All times are in EDT time to prevent confusion due to time zone crossing. See the N73DB flight status page for this flight to view local times or setup timezone preferences in your user account.

Time Position Orientation Groundspeed Altitude Reporting Facility
EDT Latitude Longitude Course Direction KTS MPH feet Rate Location/Type
09:37PM 35.8803 -76.6431 265° West 362 417 4,000  Level Washington Center
09:38PM 35.8236 -76.6681 200° South 285 328 5,100 1,320 Climbing Washington Center
09:39PM 35.7547 -76.6797 188° South 260 299 6,600 1,740 Climbing Washington Center
09:40PM 35.6856 -76.6967 191° South 255 293 8,600 1,980 Climbing Washington Center
09:41PM 35.6228 -76.7267 201° Southwest 255 293 10,600 1,920 Climbing Washington Center
09:42PM 35.9974 -77.1006 265° West  Level FlightAware Approximate
09:42PM 35.5619 -76.7639 206° Southwest 250 288 12,500  Level Washington Center
09:43PM 35.5094 -76.8092 215° Southwest 243 280 14,600 1,920 Climbing Washington Center
09:44PM 35.4586 -76.8619 220° Southwest 238 274 16,300 1,620 Climbing Washington Center
09:45PM 35.4122 -76.9097 220° Southwest 238 274 17,900 1,560 Climbing Washington Center
09:46PM 35.3678 -76.9650 225° Southwest 233 268 19,500 1,440 Climbing Washington Center
09:47PM 35.3275 -77.0228 229° Southwest 233 268 20,800 1,140 Climbing Washington Center
09:48PM 35.2933 -77.0986 241° Southwest 238 274 21,800 600 Climbing Washington Center
09:49PM 35.2586 -77.1819 243° Southwest 259 298 22,000 60 Climbing Washington Center
09:50PM 35.2219 -77.2778 245° Southwest 286 329 22,000  Level Washington Center
09:51PM 35.1808 -77.3786 244° Southwest 315 362 22,000  Level Washington Center
09:52PM 35.1397 -77.4792 243° Southwest 331 381 22,000  Level Washington Center
09:53PM 35.0983 -77.5822 244° Southwest 336 387 22,000  Level Washington Center
09:54PM 35.0550 -77.6828 242° Southwest 336 387 22,000  Level Washington Center
09:55PM 35.0156 -77.7831 244° Southwest 336 387 22,000  Level Washington Center
09:56PM 34.9761 -77.8808 244° Southwest 336 387 22,000  Level Washington Center
09:57PM 34.9367 -77.9836 245° Southwest 336 387 22,000  Level Washington Center
09:58PM 34.8950 -78.0811 243° Southwest 336 387 22,000  Level Washington Center
09:59PM 34.8531 -78.1836 244° Southwest 336 387 22,000  Level Washington Center
10:00PM 34.8114 -78.2811 243° Southwest 336 387 22,000  Level Washington Center
10:01PM 34.7692 -78.3933 245° Southwest 341 392 22,000  Level Washington Center
10:03PM 34.6847 -78.5828 242° Southwest 332 382 22,000  Level Jacksonville Center
10:04PM 34.6444 -78.6833 244° Southwest 327 376 22,000  Level Jacksonville Center
10:05PM 34.6039 -78.7811 243° Southwest 327 376 22,000  Level Jacksonville Center
10:06PM 34.5631 -78.8764 243° Southwest 327 376 22,000  Level Jacksonville Center
10:07PM 34.5203 -78.9742 242° Southwest 327 376 22,000  Level Jacksonville Center
10:08PM 34.4817 -79.0742 245° Southwest 332 382 22,000  Level Jacksonville Center
10:09PM 34.4389 -79.1742 243° Southwest 332 382 22,000  Level Jacksonville Center
10:10PM 34.4083 -79.2736 250° West 325 374 22,000  Level Jacksonville Center
10:11PM 34.4342 -79.3783 287° West 310 357 22,000  Level Jacksonville Center
10:12PM 34.4578 -79.4781 286° West 310 357 22,000  Level Jacksonville Center
10:13PM 34.4836 -79.5803 287° West 316 364 22,000 -720 Level Jacksonville Center
10:14PM 34.5092 -79.6900 286° West 316 364 20,600 -1,500 Descending Jacksonville Center
10:15PM 34.5350 -79.8000 286° West 327 376 19,000 -1,680 Descending Jacksonville Center
10:16PM 34.5606 -79.9100 286° West 340 391 17,300 -1,620 Descending Jacksonville Center
10:17PM 34.5903 -80.0200 288° West 340 391 15,800 -1,560 Descending Jacksonville Center
10:19PM 34.6389 -80.2317 286° West 333 383 12,900 -1,500 Descending Atlanta Center
10:20PM 34.6964 -80.3350 304° West 295 339 11,200 -1,020 Descending Atlanta Center
10:20PM 34.7289 -80.3767 314° West 287 330 11,100 -720 Descending Atlanta Center
10:22PM 34.7894 -80.4525 314° West 289 333 10,000 -1,020 Descending Atlanta Center
10:23PM 34.8417 -80.5186 314° West 285 328 9,100 -480 Descending Atlanta Center
10:24PM 34.9000 -80.5894 315° West 273 314 9,100  Level Atlanta Center
10:24PM 34.9433 -80.6458 313° West 278 320 9,100  Level Atlanta Center
10:26PM 35.0231 -80.7417 315° West 288 331 9,100  Level Atlanta Center
10:27PM 35.0597 -80.7883 314° West 282 325 9,100 -180 Level Atlanta Center
10:27PM 35.1250 -80.8111 344° North 275 316 8,900 -1,320 Descending Atlanta Center
10:29PM 35.2297 -80.8250 354° North 269 310 6,300 -1,980 Descending Atlanta Center